Wetterdaten: Freitag, 11.04.2014
Datum Zeit Temperatur Luftfeuchte Luftdruck Regen Wind Richtung Richtung Taupunkt Windchill Windben
11.04.2014 00:00 6,5 C 93 % 1020,5 hPa 0,0 l/m 0,0 km/h (0 Bft) SW 225 5,5 C 0,0 C 0,0 km/h (0 Bft)
11.04.2014 00:05 6,5 C 93 % 1020,3 hPa 0,0 l/m 0,0 km/h (0 Bft) SW 225 5,5 C 0,0 C 0,0 km/h (0 Bft)
11.04.2014 00:10 6,5 C 93 % 1020,3 hPa 0,0 l/m 0,0 km/h (0 Bft) SW 225 5,5 C 0,0 C 0,0 km/h (0 Bft)
11.04.2014 00:15 6,5 C 93 % 1020,3 hPa 0,0 l/m 0,0 km/h (0 Bft) SW 225 5,5 C 0,0 C 0,0 km/h (0 Bft)
11.04.2014 00:20 6,5 C 93 % 1020,3 hPa 0,0 l/m 0,0 km/h (0 Bft) SW 225 5,5 C 0,0 C 0,0 km/h (0 Bft)
11.04.2014 00:25 6,5 C 93 % 1020,0 hPa 0,0 l/m 0,0 km/h (0 Bft) SW 225 5,5 C 0,0 C 0,0 km/h (0 Bft)
11.04.2014 00:30 6,5 C 93 % 1020,0 hPa 0,0 l/m 0,0 km/h (0 Bft) SW 225 5,5 C 0,0 C 0,0 km/h (0 Bft)
11.04.2014 00:35 6,5 C 93 % 1020,0 hPa 0,0 l/m 0,0 km/h (0 Bft) SW 225 5,5 C 0,0 C 0,0 km/h (0 Bft)
11.04.2014 00:40 6,5 C 93 % 1020,0 hPa 0,0 l/m 0,0 km/h (0 Bft) SW 225 5,5 C 0,0 C 0,0 km/h (0 Bft)
11.04.2014 00:45 6,5 C 93 % 1020,0 hPa 0,0 l/m 0,0 km/h (0 Bft) SW 225 5,5 C 0,0 C 0,0 km/h (0 Bft)
11.04.2014 00:50 6,5 C 93 % 1019,9 hPa 0,0 l/m 0,0 km/h (0 Bft) SW 225 5,5 C 0,0 C 0,0 km/h (0 Bft)
11.04.2014 00:55 6,5 C 93 % 1019,9 hPa 0,0 l/m 0,0 km/h (0 Bft) SW 225 5,5 C 0,0 C 0,0 km/h (0 Bft)
11.04.2014 01:00 6,4 C 93 % 1019,9 hPa 0,0 l/m 0,0 km/h (0 Bft) SW 225 5,4 C 0,0 C 0,0 km/h (0 Bft)
11.04.2014 01:05 6,3 C 93 % 1019,9 hPa 0,0 l/m 0,0 km/h (0 Bft) SW 225 5,3 C 0,0 C 0,0 km/h (0 Bft)
11.04.2014 01:10 6,3 C 93 % 1020,1 hPa 0,0 l/m 0,0 km/h (0 Bft) SW 225 5,3 C 0,0 C 0,0 km/h (0 Bft)
11.04.2014 01:15 6,2 C 93 % 1020,1 hPa 0,0 l/m 0,0 km/h (0 Bft) SW 225 5,2 C 0,0 C 0,0 km/h (0 Bft)
11.04.2014 01:20 6,2 C 93 % 1020,1 hPa 0,0 l/m 0,0 km/h (0 Bft) SW 225 5,2 C 0,0 C 0,0 km/h (0 Bft)
11.04.2014 01:25 5,9 C 94 % 1020,1 hPa 0,0 l/m 0,0 km/h (0 Bft) SW 225 5,0 C 0,0 C 0,0 km/h (0 Bft)
11.04.2014 01:30 5,9 C 94 % 1019,9 hPa 0,0 l/m 0,0 km/h (0 Bft) SW 225 5,0 C 0,0 C 0,0 km/h (0 Bft)
11.04.2014 01:35 5,6 C 94 % 1019,9 hPa 0,0 l/m 0,0 km/h (0 Bft) SW 225 4,7 C 0,0 C 0,0 km/h (0 Bft)
11.04.2014 01:40 5,4 C 94 % 1019,9 hPa 0,0 l/m 0,0 km/h (0 Bft) SW 225 4,5 C 0,0 C 0,0 km/h (0 Bft)
11.04.2014 01:45 5,3 C 94 % 1019,9 hPa 0,0 l/m 0,0 km/h (0 Bft) SW 225 4,4 C 0,0 C 0,0 km/h (0 Bft)
11.04.2014 01:50 5,4 C 94 % 1019,6 hPa 0,0 l/m 0,0 km/h (0 Bft) SW 225 4,5 C 0,0 C 0,0 km/h (0 Bft)
11.04.2014 01:55 5,4 C 94 % 1019,6 hPa 0,0 l/m 0,0 km/h (0 Bft) SW 225 4,5 C 0,0 C 0,0 km/h (0 Bft)
11.04.2014 02:00 5,2 C 94 % 1019,6 hPa 0,0 l/m 0,0 km/h (0 Bft) SW 225 4,3 C 0,0 C 0,0 km/h (0 Bft)
11.04.2014 02:05 5,0 C 94 % 1019,6 hPa 0,0 l/m 0,0 km/h (0 Bft) SW 225 4,1 C 0,0 C 0,0 km/h (0 Bft)
11.04.2014 02:10 5,1 C 94 % 1019,6 hPa 0,0 l/m 0,0 km/h (0 Bft) SW 225 4,2 C 0,0 C 0,0 km/h (0 Bft)
11.04.2014 02:15 4,9 C 95 % 1019,6 hPa 0,0 l/m 0,0 km/h (0 Bft) SW 225 4,2 C 0,0 C 0,0 km/h (0 Bft)
11.04.2014 02:20 4,9 C 95 % 1019,6 hPa 0,0 l/m 0,0 km/h (0 Bft) SW 225 4,2 C 0,0 C 0,0 km/h (0 Bft)
11.04.2014 02:24 4,7 C 95 % 1019,6 hPa 0,0 l/m 0,0 km/h (0 Bft) SW 225 4,0 C 0,0 C 0,0 km/h (0 Bft)
11.04.2014 02:25 4,5 C 95 % 1019,3 hPa 0,0 l/m 0,0 km/h (0 Bft) SW 225 3,8 C 0,0 C 0,0 km/h (0 Bft)
11.04.2014 02:30 4,5 C 95 % 1019,3 hPa 0,0 l/m 0,0 km/h (0 Bft) SW 225 3,8 C 0,0 C 0,0 km/h (0 Bft)
11.04.2014 02:35 4,3 C 95 % 1019,3 hPa 0,0 l/m 0,0 km/h (0 Bft) SW 225 3,6 C 0,0 C 0,0 km/h (0 Bft)
11.04.2014 02:40 4,2 C 95 % 1019,3 hPa 0,0 l/m 0,0 km/h (0 Bft) SW 225 3,5 C 0,0 C 0,0 km/h (0 Bft)
11.04.2014 02:45 4,5 C 95 % 1019,2 hPa 0,0 l/m 0,0 km/h (0 Bft) SW 225 3,8 C 0,0 C 0,0 km/h (0 Bft)
11.04.2014 02:50 4,2 C 95 % 1019,2 hPa 0,0 l/m 0,0 km/h (0 Bft) SW 225 3,5 C 0,0 C 0,0 km/h (0 Bft)
11.04.2014 02:55 3,8 C 95 % 1019,2 hPa 0,0 l/m 0,0 km/h (0 Bft) SW 225 3,1 C 0,0 C 0,0 km/h (0 Bft)
11.04.2014 03:00 3,4 C 95 % 1019,2 hPa 0,0 l/m 0,0 km/h (0 Bft) SW 225 2,7 C 0,0 C 0,0 km/h (0 Bft)
11.04.2014 03:05 3,2 C 95 % 1019,1 hPa 0,0 l/m 0,0 km/h (0 Bft) SW 225 2,5 C 0,0 C 0,0 km/h (0 Bft)
11.04.2014 03:10 2,9 C 96 % 1019,1 hPa 0,0 l/m 0,0 km/h (0 Bft) SW 225 2,3 C 0,0 C 0,0 km/h (0 Bft)
11.04.2014 03:15 2,7 C 96 % 1019,1 hPa 0,0 l/m 0,0 km/h (0 Bft) SW 225 2,1 C 0,0 C 0,0 km/h (0 Bft)
11.04.2014 03:20 2,6 C 96 % 1019,1 hPa 0,0 l/m 0,0 km/h (0 Bft) SW 225 2,0 C 0,0 C 0,0 km/h (0 Bft)
11.04.2014 03:25 2,6 C 96 % 1018,5 hPa 0,0 l/m 0,0 km/h (0 Bft) SW 225 2,0 C 0,0 C 0,0 km/h (0 Bft)
11.04.2014 03:30 2,5 C 96 % 1018,5 hPa 0,0 l/m 0,0 km/h (0 Bft) SW 225 1,9 C 0,0 C 0,0 km/h (0 Bft)
11.04.2014 03:35 2,7 C 96 % 1018,5 hPa 0,0 l/m 0,0 km/h (0 Bft) SW 225 2,1 C 0,0 C 0,0 km/h (0 Bft)
11.04.2014 03:40 2,3 C 96 % 1018,5 hPa 0,0 l/m 0,0 km/h (0 Bft) SW 225 1,7 C 0,0 C 0,0 km/h (0 Bft)
11.04.2014 03:45 2,5 C 96 % 1018,6 hPa 0,0 l/m 0,0 km/h (0 Bft) SW 225 1,9 C 0,0 C 0,0 km/h (0 Bft)
11.04.2014 03:50 2,5 C 96 % 1018,6 hPa 0,0 l/m 0,0 km/h (0 Bft) SW 225 1,9 C 0,0 C 0,0 km/h (0 Bft)
11.04.2014 03:55 2,4 C 96 % 1018,6 hPa 0,0 l/m 0,0 km/h (0 Bft) SW 225 1,8 C 0,0 C 0,0 km/h (0 Bft)
11.04.2014 04:00 2,5 C 96 % 1018,6 hPa 0,0 l/m 0,0 km/h (0 Bft) SW 225 1,9 C 0,0 C 0,0 km/h (0 Bft)
11.04.2014 04:05 2,2 C 96 % 1018,5 hPa 0,0 l/m 0,0 km/h (0 Bft) SW 225 1,6 C 0,0 C 0,0 km/h (0 Bft)
11.04.2014 04:10 1,9 C 96 % 1018,5 hPa 0,0 l/m 0,0 km/h (0 Bft) SW 225 1,3 C 0,0 C 0,0 km/h (0 Bft)
11.04.2014 04:15 1,9 C 96 % 1018,5 hPa 0,0 l/m 0,0 km/h (0 Bft) SW 225 1,3 C 0,0 C 0,0 km/h (0 Bft)
11.04.2014 04:20 1,9 C 96 % 1018,5 hPa 0,0 l/m 0,0 km/h (0 Bft) SW 225 1,3 C 0,0 C 0,0 km/h (0 Bft)
11.04.2014 04:25 1,8 C 96 % 1018,3 hPa 0,0 l/m 0,0 km/h (0 Bft) SW 225 1,2 C 0,0 C 0,0 km/h (0 Bft)
11.04.2014 04:30 1,6 C 96 % 1018,3 hPa 0,0 l/m 0,0 km/h (0 Bft) SW 225 1,0 C 0,0 C 0,0 km/h (0 Bft)
11.04.2014 04:35 1,6 C 96 % 1018,3 hPa 0,0 l/m 0,0 km/h (0 Bft) SW 225 1,0 C 0,0 C 0,0 km/h (0 Bft)
11.04.2014 04:40 1,8 C 96 % 1018,3 hPa 0,0 l/m 0,0 km/h (0 Bft) SW 225 1,2 C 0,0 C 0,0 km/h (0 Bft)
11.04.2014 04:45 1,9 C 96 % 1018,1 hPa 0,0 l/m 0,0 km/h (0 Bft) SW 225 1,3 C 0,0 C 0,0 km/h (0 Bft)
11.04.2014 04:50 1,7 C 96 % 1018,1 hPa 0,0 l/m 0,0 km/h (0 Bft) SW 225 1,1 C 0,0 C 0,0 km/h (0 Bft)
11.04.2014 04:55 1,7 C 96 % 1018,1 hPa 0,0 l/m 0,0 km/h (0 Bft) SW 225 1,1 C 0,0 C 0,0 km/h (0 Bft)
11.04.2014 05:00 1,5 C 96 % 1018,1 hPa 0,0 l/m 0,0 km/h (0 Bft) SW 225 0,9 C 0,0 C 0,0 km/h (0 Bft)
11.04.2014 05:05 1,5 C 96 % 1017,7 hPa 0,0 l/m 0,0 km/h (0 Bft) SW 225 0,9 C 0,0 C 0,0 km/h (0 Bft)
11.04.2014 05:10 1,4 C 96 % 1017,7 hPa 0,0 l/m 0,0 km/h (0 Bft) SW 225 0,8 C 0,0 C 0,0 km/h (0 Bft)
11.04.2014 05:15 1,7 C 97 % 1017,7 hPa 0,0 l/m 0,0 km/h (0 Bft) SW 225 1,3 C 0,0 C 0,0 km/h (0 Bft)
11.04.2014 05:20 1,8 C 97 % 1017,7 hPa 0,0 l/m 0,0 km/h (0 Bft) SW 225 1,4 C 0,0 C 0,0 km/h (0 Bft)
11.04.2014 05:25 1,5 C 97 % 1017,8 hPa 0,0 l/m 0,0 km/h (0 Bft) SW 225 1,1 C 0,0 C 0,0 km/h (0 Bft)
11.04.2014 05:30 1,6 C 97 % 1017,8 hPa 0,0 l/m 0,0 km/h (0 Bft) SW 225 1,2 C 0,0 C 0,0 km/h (0 Bft)
11.04.2014 05:35 1,9 C 97 % 1017,8 hPa 0,0 l/m 0,0 km/h (0 Bft) SW 225 1,5 C 0,0 C 0,0 km/h (0 Bft)
11.04.2014 05:40 1,5 C 97 % 1017,8 hPa 0,0 l/m 0,0 km/h (0 Bft) SW 225 1,1 C 0,0 C 0,0 km/h (0 Bft)
11.04.2014 05:45 1,1 C 97 % 1017,8 hPa 0,0 l/m 0,0 km/h (0 Bft) SW 225 0,7 C 0,0 C 0,0 km/h (0 Bft)
11.04.2014 05:50 1,1 C 97 % 1017,8 hPa 0,0 l/m 0,0 km/h (0 Bft) SW 225 0,7 C 0,0 C 0,0 km/h (0 Bft)
11.04.2014 05:55 1,1 C 97 % 1017,8 hPa 0,0 l/m 0,0 km/h (0 Bft) SW 225 0,7 C 0,0 C 0,0 km/h (0 Bft)
11.04.2014 06:00 1,2 C 97 % 1017,8 hPa 0,0 l/m 0,0 km/h (0 Bft) SW 225 0,8 C 0,0 C 0,0 km/h (0 Bft)
11.04.2014 06:05 1,1 C 97 % 1017,8 hPa 0,0 l/m 0,0 km/h (0 Bft) SW 225 0,7 C 0,0 C 0,0 km/h (0 Bft)
11.04.2014 06:10 1,1 C 97 % 1017,6 hPa 0,0 l/m 0,0 km/h (0 Bft) SW 225 0,7 C 0,0 C 0,0 km/h (0 Bft)
11.04.2014 06:15 1,1 C 97 % 1017,6 hPa 0,0 l/m 0,0 km/h (0 Bft) SW 225 0,7 C 0,0 C 0,0 km/h (0 Bft)
11.04.2014 06:20 1,1 C 97 % 1017,6 hPa 0,0 l/m 0,0 km/h (0 Bft) SW 225 0,7 C 0,0 C 0,0 km/h (0 Bft)
11.04.2014 06:25 0,9 C 97 % 1017,6 hPa 0,0 l/m 0,0 km/h (0 Bft) SW 225 0,5 C 0,0 C 0,0 km/h (0 Bft)
11.04.2014 06:30 0,8 C 97 % 1017,3 hPa 0,0 l/m 0,0 km/h (0 Bft) SW 225 0,4 C 0,0 C 0,0 km/h (0 Bft)
11.04.2014 06:35 0,7 C 97 % 1017,3 hPa 0,0 l/m 0,0 km/h (0 Bft) SW 225 0,3 C 0,0 C 0,0 km/h (0 Bft)
11.04.2014 06:40 0,7 C 97 % 1017,3 hPa 0,0 l/m 0,0 km/h (0 Bft) SW 225 0,3 C 0,0 C 0,0 km/h (0 Bft)
11.04.2014 06:45 0,6 C 97 % 1017,3 hPa 0,0 l/m 0,0 km/h (0 Bft) SW 225 0,2 C 0,0 C 0,0 km/h (0 Bft)
11.04.2014 06:50 0,7 C 97 % 1017,6 hPa 0,0 l/m 0,0 km/h (0 Bft) SW 225 0,3 C 0,0 C 0,0 km/h (0 Bft)
11.04.2014 06:55 0,6 C 97 % 1017,6 hPa 0,0 l/m 0,0 km/h (0 Bft) SW 225 0,2 C 0,0 C 0,0 km/h (0 Bft)
11.04.2014 07:00 0,6 C 97 % 1017,6 hPa 0,0 l/m 0,0 km/h (0 Bft) SW 225 0,2 C 0,0 C 0,0 km/h (0 Bft)
11.04.2014 07:05 0,8 C 97 % 1017,6 hPa 0,0 l/m 0,0 km/h (0 Bft) SW 225 0,4 C 0,0 C 0,0 km/h (0 Bft)
11.04.2014 07:10 0,9 C 97 % 1017,6 hPa 0,0 l/m 0,0 km/h (0 Bft) SW 225 0,5 C 0,0 C 0,0 km/h (0 Bft)
11.04.2014 07:15 1,2 C 97 % 1017,6 hPa 0,0 l/m 0,0 km/h (0 Bft) SW 225 0,8 C 0,0 C 0,0 km/h (0 Bft)
11.04.2014 07:20 1,3 C 97 % 1017,6 hPa 0,0 l/m 0,0 km/h (0 Bft) SW 225 0,9 C 0,0 C 0,0 km/h (0 Bft)
11.04.2014 07:24 1,5 C 97 % 1017,6 hPa 0,0 l/m 0,0 km/h (0 Bft) SW 225 1,1 C 0,0 C 0,0 km/h (0 Bft)
11.04.2014 07:25 1,5 C 97 % 1017,8 hPa 0,0 l/m 0,0 km/h (0 Bft) SW 225 1,1 C 0,0 C 0,0 km/h (0 Bft)
11.04.2014 07:30 1,5 C 97 % 1017,8 hPa 0,0 l/m 0,0 km/h (0 Bft) SW 225 1,1 C 0,0 C 0,0 km/h (0 Bft)
11.04.2014 07:35 1,7 C 97 % 1017,8 hPa 0,0 l/m 0,0 km/h (0 Bft) SW 225 1,3 C 0,0 C 0,0 km/h (0 Bft)
11.04.2014 07:40 1,9 C 97 % 1017,8 hPa 0,0 l/m 0,0 km/h (0 Bft) SW 225 1,5 C 0,0 C 0,0 km/h (0 Bft)
11.04.2014 07:45 2,4 C 97 % 1017,6 hPa 0,0 l/m 0,0 km/h (0 Bft) SW 225 2,0 C 0,0 C 0,0 km/h (0 Bft)
11.04.2014 07:50 3,0 C 96 % 1017,6 hPa 0,0 l/m 0,0 km/h (0 Bft) SW 225 2,4 C 0,0 C 0,0 km/h (0 Bft)
11.04.2014 07:55 3,8 C 96 % 1017,6 hPa 0,0 l/m 0,0 km/h (0 Bft) SW 225 3,2 C 0,0 C 0,0 km/h (0 Bft)
11.04.2014 08:00 5,9 C 96 % 1017,6 hPa 0,0 l/m 0,0 km/h (0 Bft) SW 225 5,3 C 0,0 C 0,0 km/h (0 Bft)
11.04.2014 08:05 8,1 C 94 % 1017,8 hPa 0,0 l/m 0,0 km/h (0 Bft) SW 225 7,2 C 0,0 C 0,0 km/h (0 Bft)
11.04.2014 08:10 8,7 C 92 % 1017,8 hPa 0,0 l/m 0,0 km/h (0 Bft) SW 225 7,5 C 0,0 C 0,0 km/h (0 Bft)
11.04.2014 08:15 9,0 C 91 % 1017,8 hPa 0,0 l/m 0,0 km/h (0 Bft) SW 225 7,6 C 0,0 C 0,0 km/h (0 Bft)
11.04.2014 08:20 10,5 C 88 % 1017,8 hPa 0,0 l/m 0,0 km/h (0 Bft) SW 225 8,6 C 0,0 C 0,0 km/h (0 Bft)
11.04.2014 08:25 11,5 C 86 % 1018,1 hPa 0,0 l/m 0,0 km/h (0 Bft) SW 225 9,2 C 0,0 C 0,0 km/h (0 Bft)
11.04.2014 08:30 12,8 C 85 % 1018,1 hPa 0,0 l/m 0,0 km/h (0 Bft) SW 225 10,3 C 0,0 C 0,0 km/h (0 Bft)
11.04.2014 08:35 13,3 C 83 % 1018,1 hPa 0,0 l/m 0,0 km/h (0 Bft) SW 225 10,5 C 0,0 C 0,0 km/h (0 Bft)
11.04.2014 08:40 13,0 C 79 % 1018,1 hPa 0,0 l/m 0,0 km/h (0 Bft) SW 225 9,4 C 0,0 C 0,0 km/h (0 Bft)
11.04.2014 08:45 13,4 C 78 % 1018,3 hPa 0,0 l/m 0,0 km/h (0 Bft) SW 225 9,6 C 0,0 C 0,0 km/h (0 Bft)
11.04.2014 08:50 13,8 C 74 % 1018,3 hPa 0,0 l/m 0,0 km/h (0 Bft) SW 225 9,2 C 0,0 C 0,0 km/h (0 Bft)
11.04.2014 08:55 13,7 C 73 % 1018,3 hPa 0,0 l/m 0,0 km/h (0 Bft) SW 225 8,9 C 0,0 C 0,0 km/h (0 Bft)
11.04.2014 09:00 14,6 C 73 % 1018,3 hPa 0,0 l/m 0,0 km/h (0 Bft) SW 225 9,8 C 0,0 C 0,0 km/h (0 Bft)
11.04.2014 09:05 14,4 C 75 % 1018,6 hPa 0,0 l/m 0,0 km/h (0 Bft) SW 225 10,0 C 0,0 C 0,0 km/h (0 Bft)
11.04.2014 09:10 14,6 C 78 % 1018,6 hPa 0,0 l/m 0,0 km/h (0 Bft) SW 225 10,8 C 0,0 C 0,0 km/h (0 Bft)
11.04.2014 09:15 14,5 C 69 % 1018,6 hPa 0,0 l/m 0,0 km/h (0 Bft) SW 225 8,9 C 0,0 C 0,0 km/h (0 Bft)
11.04.2014 09:20 15,0 C 70 % 1018,6 hPa 0,0 l/m 0,0 km/h (0 Bft) SW 225 9,6 C 0,0 C 0,0 km/h (0 Bft)
11.04.2014 09:25 15,3 C 70 % 1018,9 hPa 0,0 l/m 0,0 km/h (0 Bft) SW 225 9,9 C 0,0 C 0,0 km/h (0 Bft)
11.04.2014 09:30 14,5 C 63 % 1018,9 hPa 0,0 l/m 0,0 km/h (0 Bft) SW 225 7,5 C 0,0 C 0,0 km/h (0 Bft)
11.04.2014 09:35 14,6 C 68 % 1018,9 hPa 0,0 l/m 0,0 km/h (0 Bft) SW 225 8,8 C 0,0 C 0,0 km/h (0 Bft)
11.04.2014 09:40 15,4 C 61 % 1018,9 hPa 0,0 l/m 0,0 km/h (0 Bft) SW 225 7,9 C 0,0 C 0,0 km/h (0 Bft)
11.04.2014 09:45 15,9 C 64 % 1019,2 hPa 0,0 l/m 0,0 km/h (0 Bft) SW 225 9,1 C 0,0 C 0,0 km/h (0 Bft)
11.04.2014 09:50 15,5 C 61 % 1019,2 hPa 0,0 l/m 0,0 km/h (0 Bft) SW 225 8,0 C 0,0 C 0,0 km/h (0 Bft)
11.04.2014 09:55 15,7 C 56 % 1019,2 hPa 0,0 l/m 0,0 km/h (0 Bft) SW 225 6,9 C 0,0 C 0,0 km/h (0 Bft)
11.04.2014 10:00 16,1 C 54 % 1019,2 hPa 0,0 l/m 0,0 km/h (0 Bft) SW 225 6,8 C 0,0 C 0,0 km/h (0 Bft)
11.04.2014 10:05 15,8 C 54 % 1019,6 hPa 0,0 l/m 0,0 km/h (0 Bft) SW 225 6,5 C 0,0 C 0,0 km/h (0 Bft)
11.04.2014 10:10 15,3 C 50 % 1019,6 hPa 0,0 l/m 0,0 km/h (0 Bft) SW 225 4,9 C 0,0 C 0,0 km/h (0 Bft)
11.04.2014 10:15 15,4 C 53 % 1019,6 hPa 0,0 l/m 0,0 km/h (0 Bft) SW 225 5,9 C 0,0 C 0,0 km/h (0 Bft)
11.04.2014 10:20 15,3 C 52 % 1019,6 hPa 0,0 l/m 0,0 km/h (0 Bft) SW 225 5,5 C 0,0 C 0,0 km/h (0 Bft)
11.04.2014 10:25 15,5 C 47 % 1020,0 hPa 0,0 l/m 0,0 km/h (0 Bft) SW 225 4,2 C 0,0 C 0,0 km/h (0 Bft)
11.04.2014 10:30 15,7 C 48 % 1020,0 hPa 0,0 l/m 0,0 km/h (0 Bft) SW 225 4,7 C 0,0 C 0,0 km/h (0 Bft)
11.04.2014 10:35 14,8 C 46 % 1020,0 hPa 0,0 l/m 0,0 km/h (0 Bft) SW 225 3,3 C 0,0 C 0,0 km/h (0 Bft)
11.04.2014 10:40 15,0 C 44 % 1020,0 hPa 0,0 l/m 0,0 km/h (0 Bft) SW 225 2,9 C 0,0 C 0,0 km/h (0 Bft)
11.04.2014 10:45 15,2 C 45 % 1020,0 hPa 0,0 l/m 0,0 km/h (0 Bft) SW 225 3,4 C 0,0 C 0,0 km/h (0 Bft)
11.04.2014 10:50 15,2 C 44 % 1020,0 hPa 0,0 l/m 0,0 km/h (0 Bft) SW 225 3,0 C 0,0 C 0,0 km/h (0 Bft)
11.04.2014 10:55 15,2 C 44 % 1020,0 hPa 0,0 l/m 0,0 km/h (0 Bft) SW 225 3,0 C 0,0 C 0,0 km/h (0 Bft)
11.04.2014 11:00 15,2 C 46 % 1020,0 hPa 0,0 l/m 0,0 km/h (0 Bft) SW 225 3,7 C 0,0 C 0,0 km/h (0 Bft)
11.04.2014 11:05 15,3 C 45 % 1020,0 hPa 0,0 l/m 0,0 km/h (0 Bft) SW 225 3,4 C 0,0 C 0,0 km/h (0 Bft)
11.04.2014 11:10 15,1 C 45 % 1019,9 hPa 0,0 l/m 0,0 km/h (0 Bft) SW 225 3,3 C 0,0 C 0,0 km/h (0 Bft)
11.04.2014 11:15 15,1 C 46 % 1019,9 hPa 0,0 l/m 0,0 km/h (0 Bft) SW 225 3,6 C 0,0 C 0,0 km/h (0 Bft)
11.04.2014 11:20 16,0 C 45 % 1019,9 hPa 0,0 l/m 0,0 km/h (0 Bft) SW 225 4,1 C 0,0 C 0,0 km/h (0 Bft)
11.04.2014 11:25 15,9 C 44 % 1019,9 hPa 0,0 l/m 0,0 km/h (0 Bft) SW 225 3,7 C 0,0 C 0,0 km/h (0 Bft)
11.04.2014 11:30 16,0 C 44 % 1020,0 hPa 0,0 l/m 0,0 km/h (0 Bft) SW 225 3,8 C 0,0 C 0,0 km/h (0 Bft)
11.04.2014 11:35 16,4 C 42 % 1020,0 hPa 0,0 l/m 0,0 km/h (0 Bft) SW 225 3,5 C 0,0 C 0,0 km/h (0 Bft)
11.04.2014 11:40 16,7 C 42 % 1020,0 hPa 0,0 l/m 0,0 km/h (0 Bft) SW 225 3,7 C 0,0 C 0,0 km/h (0 Bft)
11.04.2014 11:45 16,7 C 42 % 1020,0 hPa 0,0 l/m 0,0 km/h (0 Bft) SW 225 3,7 C 0,0 C 0,0 km/h (0 Bft)
11.04.2014 11:50 16,6 C 42 % 1020,0 hPa 0,0 l/m 0,0 km/h (0 Bft) SW 225 3,6 C 0,0 C 0,0 km/h (0 Bft)
11.04.2014 11:55 17,3 C 42 % 1020,0 hPa 0,0 l/m 0,0 km/h (0 Bft) SW 225 4,3 C 0,0 C 0,0 km/h (0 Bft)
11.04.2014 12:00 18,1 C 40 % 1020,0 hPa 0,0 l/m 0,0 km/h (0 Bft) SW 225 4,3 C 0,0 C 0,0 km/h (0 Bft)
11.04.2014 12:05 16,5 C 40 % 1020,0 hPa 0,0 l/m 0,0 km/h (0 Bft) SW 225 2,9 C 0,0 C 0,0 km/h (0 Bft)
11.04.2014 12:10 16,8 C 41 % 1020,1 hPa 0,0 l/m 0,0 km/h (0 Bft) SW 225 3,5 C 0,0 C 0,0 km/h (0 Bft)
11.04.2014 12:15 16,5 C 42 % 1020,1 hPa 0,0 l/m 0,0 km/h (0 Bft) SW 225 3,5 C 0,0 C 0,0 km/h (0 Bft)
11.04.2014 12:20 17,2 C 43 % 1020,1 hPa 0,0 l/m 0,0 km/h (0 Bft) SW 225 4,5 C 0,0 C 0,0 km/h (0 Bft)
11.04.2014 12:24 17,1 C 43 % 1020,1 hPa 0,0 l/m 0,0 km/h (0 Bft) SW 225 4,4 C 0,0 C 0,0 km/h (0 Bft)
11.04.2014 12:25 17,2 C 43 % 1020,0 hPa 0,0 l/m 0,0 km/h (0 Bft) SW 225 4,5 C 0,0 C 0,0 km/h (0 Bft)
11.04.2014 12:30 17,0 C 43 % 1020,0 hPa 0,0 l/m 0,0 km/h (0 Bft) SW 225 4,3 C 0,0 C 0,0 km/h (0 Bft)
11.04.2014 12:35 16,9 C 45 % 1020,0 hPa 0,0 l/m 0,0 km/h (0 Bft) SW 225 4,9 C 0,0 C 0,0 km/h (0 Bft)
11.04.2014 12:40 17,1 C 44 % 1020,0 hPa 0,0 l/m 0,0 km/h (0 Bft) SW 225 4,8 C 0,0 C 0,0 km/h (0 Bft)
11.04.2014 12:45 17,5 C 44 % 1019,9 hPa 0,0 l/m 0,0 km/h (0 Bft) SW 225 5,1 C 0,0 C 0,0 km/h (0 Bft)
11.04.2014 12:50 16,8 C 44 % 1019,9 hPa 0,0 l/m 0,0 km/h (0 Bft) SW 225 4,5 C 0,0 C 0,0 km/h (0 Bft)
11.04.2014 12:55 16,9 C 46 % 1019,9 hPa 0,0 l/m 0,0 km/h (0 Bft) SW 225 5,2 C 0,0 C 0,0 km/h (0 Bft)
11.04.2014 13:00 16,6 C 43 % 1019,9 hPa 0,0 l/m 0,0 km/h (0 Bft) SW 225 4,0 C 0,0 C 0,0 km/h (0 Bft)
11.04.2014 13:05 16,2 C 44 % 1020,1 hPa 0,0 l/m 0,0 km/h (0 Bft) SW 225 3,9 C 0,0 C 0,0 km/h (0 Bft)
11.04.2014 13:10 17,2 C 43 % 1020,1 hPa 0,0 l/m 0,0 km/h (0 Bft) SW 225 4,5 C 0,0 C 0,0 km/h (0 Bft)
11.04.2014 13:15 17,6 C 44 % 1020,1 hPa 0,0 l/m 0,0 km/h (0 Bft) SW 225 5,2 C 0,0 C 0,0 km/h (0 Bft)
11.04.2014 13:20 17,1 C 41 % 1020,1 hPa 0,0 l/m 0,0 km/h (0 Bft) SW 225 3,7 C 0,0 C 0,0 km/h (0 Bft)
11.04.2014 13:25 17,8 C 43 % 1020,0 hPa 0,0 l/m 0,0 km/h (0 Bft) SW 225 5,1 C 0,0 C 0,0 km/h (0 Bft)
11.04.2014 13:30 16,4 C 45 % 1020,0 hPa 0,0 l/m 0,0 km/h (0 Bft) SW 225 4,4 C 0,0 C 0,0 km/h (0 Bft)
11.04.2014 13:35 16,2 C 45 % 1020,0 hPa 0,0 l/m 0,0 km/h (0 Bft) SW 225 4,3 C 0,0 C 0,0 km/h (0 Bft)
11.04.2014 13:40 17,0 C 44 % 1020,0 hPa 0,0 l/m 0,0 km/h (0 Bft) SW 225 4,7 C 0,0 C 0,0 km/h (0 Bft)
11.04.2014 13:45 17,2 C 42 % 1019,8 hPa 0,0 l/m 0,0 km/h (0 Bft) SW 225 4,2 C 0,0 C 0,0 km/h (0 Bft)
11.04.2014 13:50 17,4 C 41 % 1019,8 hPa 0,0 l/m 0,0 km/h (0 Bft) SW 225 4,0 C 0,0 C 0,0 km/h (0 Bft)
11.04.2014 13:55 17,2 C 42 % 1019,8 hPa 0,0 l/m 0,0 km/h (0 Bft) SW 225 4,2 C 0,0 C 0,0 km/h (0 Bft)
11.04.2014 14:00 17,9 C 42 % 1019,8 hPa 0,0 l/m 0,0 km/h (0 Bft) SW 225 4,8 C 0,0 C 0,0 km/h (0 Bft)
11.04.2014 14:05 17,4 C 41 % 1019,7 hPa 0,0 l/m 0,0 km/h (0 Bft) SW 225 4,0 C 0,0 C 0,0 km/h (0 Bft)
11.04.2014 14:10 17,1 C 42 % 1019,7 hPa 0,0 l/m 0,0 km/h (0 Bft) SW 225 4,1 C 0,0 C 0,0 km/h (0 Bft)
11.04.2014 14:15 16,9 C 43 % 1019,7 hPa 0,0 l/m 0,0 km/h (0 Bft) SW 225 4,2 C 0,0 C 0,0 km/h (0 Bft)
11.04.2014 14:20 17,7 C 40 % 1019,7 hPa 0,0 l/m 0,0 km/h (0 Bft) SW 225 3,9 C 0,0 C 0,0 km/h (0 Bft)
11.04.2014 14:25 17,8 C 40 % 1019,5 hPa 0,0 l/m 0,0 km/h (0 Bft) SW 225 4,0 C 0,0 C 0,0 km/h (0 Bft)
11.04.2014 14:30 17,5 C 42 % 1019,5 hPa 0,0 l/m 0,0 km/h (0 Bft) SW 225 4,4 C 0,0 C 0,0 km/h (0 Bft)
11.04.2014 14:35 18,2 C 41 % 1019,5 hPa 0,0 l/m 0,0 km/h (0 Bft) SW 225 4,7 C 0,0 C 0,0 km/h (0 Bft)
11.04.2014 14:40 18,0 C 40 % 1019,5 hPa 0,0 l/m 0,0 km/h (0 Bft) SW 225 4,2 C 0,0 C 0,0 km/h (0 Bft)
11.04.2014 14:45 18,5 C 40 % 1019,1 hPa 0,0 l/m 0,0 km/h (0 Bft) SW 225 4,6 C 0,0 C 0,0 km/h (0 Bft)
11.04.2014 14:50 18,5 C 39 % 1019,1 hPa 0,0 l/m 0,0 km/h (0 Bft) SW 225 4,3 C 0,0 C 0,0 km/h (0 Bft)
11.04.2014 14:55 18,9 C 39 % 1019,1 hPa 0,0 l/m 0,0 km/h (0 Bft) SW 225 4,6 C 0,0 C 0,0 km/h (0 Bft)
11.04.2014 15:00 19,3 C 38 % 1019,1 hPa 0,0 l/m 0,0 km/h (0 Bft) SW 225 4,6 C 0,0 C 0,0 km/h (0 Bft)
11.04.2014 15:05 19,3 C 38 % 1018,9 hPa 0,0 l/m 0,0 km/h (0 Bft) SW 225 4,6 C 0,0 C 0,0 km/h (0 Bft)
11.04.2014 15:10 18,0 C 40 % 1018,9 hPa 0,0 l/m 0,0 km/h (0 Bft) SW 225 4,2 C 0,0 C 0,0 km/h (0 Bft)
11.04.2014 15:15 17,9 C 40 % 1018,9 hPa 0,0 l/m 0,0 km/h (0 Bft) SW 225 4,1 C 0,0 C 0,0 km/h (0 Bft)
11.04.2014 15:20 18,4 C 40 % 1018,9 hPa 0,0 l/m 0,0 km/h (0 Bft) SW 225 4,6 C 0,0 C 0,0 km/h (0 Bft)
11.04.2014 15:25 18,1 C 39 % 1018,7 hPa 0,0 l/m 0,0 km/h (0 Bft) SW 225 3,9 C 0,0 C 0,0 km/h (0 Bft)
11.04.2014 15:30 17,7 C 40 % 1018,7 hPa 0,0 l/m 0,0 km/h (0 Bft) SW 225 3,9 C 0,0 C 0,0 km/h (0 Bft)
11.04.2014 15:35 17,5 C 40 % 1018,7 hPa 0,0 l/m 0,0 km/h (0 Bft) SW 225 3,8 C 0,0 C 0,0 km/h (0 Bft)
11.04.2014 15:40 17,4 C 41 % 1018,7 hPa 0,0 l/m 0,0 km/h (0 Bft) SW 225 4,0 C 0,0 C 0,0 km/h (0 Bft)
11.04.2014 15:45 17,4 C 41 % 1018,7 hPa 0,0 l/m 0,0 km/h (0 Bft) SW 225 4,0 C 0,0 C 0,0 km/h (0 Bft)
11.04.2014 15:50 18,0 C 40 % 1018,4 hPa 0,0 l/m 0,0 km/h (0 Bft) SW 225 4,2 C 0,0 C 0,0 km/h (0 Bft)
11.04.2014 15:55 18,2 C 40 % 1018,4 hPa 0,0 l/m 0,0 km/h (0 Bft) SW 225 4,4 C 0,0 C 0,0 km/h (0 Bft)
11.04.2014 16:00 17,4 C 40 % 1018,4 hPa 0,0 l/m 0,0 km/h (0 Bft) SW 225 3,7 C 0,0 C 0,0 km/h (0 Bft)
11.04.2014 16:05 17,0 C 41 % 1018,4 hPa 0,0 l/m 0,0 km/h (0 Bft) SW 225 3,7 C 0,0 C 0,0 km/h (0 Bft)
11.04.2014 16:10 17,3 C 41 % 1018,4 hPa 0,0 l/m 0,0 km/h (0 Bft) SW 225 3,9 C 0,0 C 0,0 km/h (0 Bft)
11.04.2014 16:15 17,6 C 41 % 1018,4 hPa 0,0 l/m 0,0 km/h (0 Bft) SW 225 4,2 C 0,0 C 0,0 km/h (0 Bft)
11.04.2014 16:20 17,9 C 40 % 1018,4 hPa 0,0 l/m 0,0 km/h (0 Bft) SW 225 4,1 C 0,0 C 0,0 km/h (0 Bft)
11.04.2014 16:25 18,1 C 38 % 1018,4 hPa 0,0 l/m 0,0 km/h (0 Bft) SW 225 3,6 C 0,0 C 0,0 km/h (0 Bft)
11.04.2014 16:30 18,4 C 39 % 1017,9 hPa 0,0 l/m 0,0 km/h (0 Bft) SW 225 4,2 C 0,0 C 0,0 km/h (0 Bft)
11.04.2014 16:35 18,3 C 39 % 1017,9 hPa 0,0 l/m 0,0 km/h (0 Bft) SW 225 4,1 C 0,0 C 0,0 km/h (0 Bft)
11.04.2014 16:40 18,0 C 38 % 1017,9 hPa 0,0 l/m 0,0 km/h (0 Bft) SW 225 3,5 C 0,0 C 0,0 km/h (0 Bft)
11.04.2014 16:45 17,8 C 40 % 1017,9 hPa 0,0 l/m 0,0 km/h (0 Bft) SW 225 4,0 C 0,0 C 0,0 km/h (0 Bft)
11.04.2014 16:50 17,7 C 40 % 1017,8 hPa 0,0 l/m 0,0 km/h (0 Bft) SW 225 3,9 C 0,0 C 0,0 km/h (0 Bft)
11.04.2014 16:55 17,7 C 40 % 1017,8 hPa 0,0 l/m 0,0 km/h (0 Bft) SW 225 3,9 C 0,0 C 0,0 km/h (0 Bft)
11.04.2014 17:00 17,3 C 41 % 1017,8 hPa 0,0 l/m 0,0 km/h (0 Bft) SW 225 3,9 C 0,0 C 0,0 km/h (0 Bft)
11.04.2014 17:05 16,7 C 42 % 1017,8 hPa 0,0 l/m 0,0 km/h (0 Bft) SW 225 3,7 C 0,0 C 0,0 km/h (0 Bft)
11.04.2014 17:10 16,9 C 44 % 1017,2 hPa 0,0 l/m 0,0 km/h (0 Bft) SW 225 4,6 C 0,0 C 0,0 km/h (0 Bft)
11.04.2014 17:15 16,6 C 44 % 1017,2 hPa 0,0 l/m 0,0 km/h (0 Bft) SW 225 4,3 C 0,0 C 0,0 km/h (0 Bft)
11.04.2014 17:20 16,6 C 43 % 1017,2 hPa 0,0 l/m 0,0 km/h (0 Bft) SW 225 4,0 C 0,0 C 0,0 km/h (0 Bft)
11.04.2014 17:24 16,2 C 45 % 1017,2 hPa 0,0 l/m 0,0 km/h (0 Bft) SW 225 4,3 C 0,0 C 0,0 km/h (0 Bft)
11.04.2014 17:25 16,2 C 46 % 1017,2 hPa 0,0 l/m 0,0 km/h (0 Bft) SW 225 4,6 C 0,0 C 0,0 km/h (0 Bft)
11.04.2014 17:30 16,0 C 46 % 1017,2 hPa 0,0 l/m 0,0 km/h (0 Bft) SW 225 4,4 C 0,0 C 0,0 km/h (0 Bft)
11.04.2014 17:35 16,0 C 46 % 1017,2 hPa 0,0 l/m 0,0 km/h (0 Bft) SW 225 4,4 C 0,0 C 0,0 km/h (0 Bft)
11.04.2014 17:40 15,8 C 48 % 1017,2 hPa 0,0 l/m 0,0 km/h (0 Bft) SW 225 4,8 C 0,0 C 0,0 km/h (0 Bft)
11.04.2014 17:45 15,5 C 48 % 1016,8 hPa 0,0 l/m 0,0 km/h (0 Bft) SW 225 4,5 C 0,0 C 0,0 km/h (0 Bft)
11.04.2014 17:50 15,4 C 48 % 1016,8 hPa 0,0 l/m 0,0 km/h (0 Bft) SW 225 4,4 C 0,0 C 0,0 km/h (0 Bft)
11.04.2014 17:55 15,2 C 49 % 1016,8 hPa 0,0 l/m 0,0 km/h (0 Bft) SW 225 4,6 C 0,0 C 0,0 km/h (0 Bft)
11.04.2014 18:00 15,1 C 49 % 1016,8 hPa 0,0 l/m 0,0 km/h (0 Bft) SW 225 4,5 C 0,0 C 0,0 km/h (0 Bft)
11.04.2014 18:05 15,1 C 50 % 1017,0 hPa 0,0 l/m 0,0 km/h (0 Bft) SW 225 4,8 C 0,0 C 0,0 km/h (0 Bft)
11.04.2014 18:10 15,2 C 51 % 1017,0 hPa 0,0 l/m 0,0 km/h (0 Bft) SW 225 5,1 C 0,0 C 0,0 km/h (0 Bft)
11.04.2014 18:15 15,1 C 51 % 1017,0 hPa 0,0 l/m 0,0 km/h (0 Bft) SW 225 5,0 C 0,0 C 0,0 km/h (0 Bft)
11.04.2014 18:20 14,8 C 52 % 1017,0 hPa 0,0 l/m 0,0 km/h (0 Bft) SW 225 5,0 C 0,0 C 0,0 km/h (0 Bft)
11.04.2014 18:25 14,7 C 53 % 1017,1 hPa 0,0 l/m 0,0 km/h (0 Bft) SW 225 5,2 C 0,0 C 0,0 km/h (0 Bft)
11.04.2014 18:30 14,3 C 54 % 1017,1 hPa 0,0 l/m 0,0 km/h (0 Bft) SW 225 5,1 C 0,0 C 0,0 km/h (0 Bft)
11.04.2014 18:35 14,0 C 54 % 1017,1 hPa 0,0 l/m 0,0 km/h (0 Bft) SW 225 4,8 C 0,0 C 0,0 km/h (0 Bft)
11.04.2014 18:40 13,7 C 56 % 1017,1 hPa 0,0 l/m 0,0 km/h (0 Bft) SW 225 5,1 C 0,0 C 0,0 km/h (0 Bft)
11.04.2014 18:45 13,5 C 57 % 1017,1 hPa 0,0 l/m 0,0 km/h (0 Bft) SW 225 5,2 C 0,0 C 0,0 km/h (0 Bft)
11.04.2014 18:50 13,2 C 57 % 1017,1 hPa 0,0 l/m 0,0 km/h (0 Bft) SW 225 4,9 C 0,0 C 0,0 km/h (0 Bft)
11.04.2014 18:55 13,0 C 58 % 1017,1 hPa 0,0 l/m 0,0 km/h (0 Bft) SW 225 4,9 C 0,0 C 0,0 km/h (0 Bft)
11.04.2014 19:00 12,7 C 59 % 1017,1 hPa 0,0 l/m 0,0 km/h (0 Bft) SW 225 4,9 C 0,0 C 0,0 km/h (0 Bft)
11.04.2014 19:05 12,6 C 61 % 1017,1 hPa 0,0 l/m 0,0 km/h (0 Bft) SW 225 5,3 C 0,0 C 0,0 km/h (0 Bft)
11.04.2014 19:10 12,4 C 62 % 1017,1 hPa 0,0 l/m 0,0 km/h (0 Bft) SW 225 5,3 C 0,0 C 0,0 km/h (0 Bft)
11.04.2014 19:15 12,3 C 62 % 1017,1 hPa 0,0 l/m 0,0 km/h (0 Bft) SW 225 5,2 C 0,0 C 0,0 km/h (0 Bft)
11.04.2014 19:20 12,0 C 63 % 1017,1 hPa 0,0 l/m 0,0 km/h (0 Bft) SW 225 5,2 C 0,0 C 0,0 km/h (0 Bft)
11.04.2014 19:25 11,8 C 64 % 1017,2 hPa 0,0 l/m 0,0 km/h (0 Bft) SW 225 5,2 C 0,0 C 0,0 km/h (0 Bft)
11.04.2014 19:30 11,6 C 65 % 1017,2 hPa 0,0 l/m 0,0 km/h (0 Bft) SW 225 5,2 C 0,0 C 0,0 km/h (0 Bft)
11.04.2014 19:35 11,4 C 66 % 1017,2 hPa 0,0 l/m 0,0 km/h (0 Bft) SW 225 5,3 C 0,0 C 0,0 km/h (0 Bft)
11.04.2014 19:40 11,2 C 67 % 1017,2 hPa 0,0 l/m 0,0 km/h (0 Bft) SW 225 5,3 C 0,0 C 0,0 km/h (0 Bft)
11.04.2014 19:45 10,9 C 68 % 1017,4 hPa 0,0 l/m 0,0 km/h (0 Bft) SW 225 5,2 C 0,0 C 0,0 km/h (0 Bft)
11.04.2014 19:50 10,7 C 68 % 1017,4 hPa 0,0 l/m 0,0 km/h (0 Bft) SW 225 5,0 C 0,0 C 0,0 km/h (0 Bft)
11.04.2014 19:55 10,5 C 69 % 1017,4 hPa 0,0 l/m 0,0 km/h (0 Bft) SW 225 5,1 C 0,0 C 0,0 km/h (0 Bft)
11.04.2014 20:00 10,4 C 70 % 1017,4 hPa 0,0 l/m 0,0 km/h (0 Bft) SW 225 5,2 C 0,0 C 0,0 km/h (0 Bft)
11.04.2014 20:05 10,0 C 70 % 1017,4 hPa 0,0 l/m 0,0 km/h (0 Bft) SW 225 4,8 C 0,0 C 0,0 km/h (0 Bft)
11.04.2014 20:10 9,4 C 71 % 1017,4 hPa 0,0 l/m 0,0 km/h (0 Bft) SW 225 4,4 C 0,0 C 0,0 km/h (0 Bft)
11.04.2014 20:15 9,3 C 71 % 1017,4 hPa 0,0 l/m 0,0 km/h (0 Bft) SW 225 4,3 C 0,0 C 0,0 km/h (0 Bft)
11.04.2014 20:20 8,9 C 73 % 1017,4 hPa 0,0 l/m 0,0 km/h (0 Bft) SW 225 4,3 C 0,0 C 0,0 km/h (0 Bft)
11.04.2014 20:25 8,6 C 72 % 1017,6 hPa 0,0 l/m 0,0 km/h (0 Bft) SW 225 3,8 C 0,0 C 0,0 km/h (0 Bft)
11.04.2014 20:30 8,4 C 73 % 1017,6 hPa 0,0 l/m 0,0 km/h (0 Bft) SW 225 3,8 C 0,0 C 0,0 km/h (0 Bft)
11.04.2014 20:35 8,2 C 74 % 1017,6 hPa 0,0 l/m 0,0 km/h (0 Bft) SW 225 3,8 C 0,0 C 0,0 km/h (0 Bft)
11.04.2014 20:40 7,7 C 73 % 1017,6 hPa 0,0 l/m 0,0 km/h (0 Bft) SW 225 3,2 C 0,0 C 0,0 km/h (0 Bft)
11.04.2014 20:45 7,6 C 75 % 1017,8 hPa 0,0 l/m 0,0 km/h (0 Bft) SW 225 3,5 C 0,0 C 0,0 km/h (0 Bft)
11.04.2014 20:50 7,6 C 75 % 1017,8 hPa 0,0 l/m 0,0 km/h (0 Bft) SW 225 3,5 C 0,0 C 0,0 km/h (0 Bft)
11.04.2014 20:55 7,6 C 76 % 1017,8 hPa 0,0 l/m 0,0 km/h (0 Bft) SW 225 3,6 C 0,0 C 0,0 km/h (0 Bft)
11.04.2014 21:00 7,4 C 75 % 1017,8 hPa 0,0 l/m 0,0 km/h (0 Bft) SW 225 3,3 C 0,0 C 0,0 km/h (0 Bft)
11.04.2014 21:05 7,4 C 76 % 1017,8 hPa 0,0 l/m 0,0 km/h (0 Bft) SW 225 3,5 C 0,0 C 0,0 km/h (0 Bft)
11.04.2014 21:10 7,4 C 76 % 1017,8 hPa 0,0 l/m 0,0 km/h (0 Bft) SW 225 3,5 C 0,0 C 0,0 km/h (0 Bft)
11.04.2014 21:15 7,4 C 78 % 1017,8 hPa 0,0 l/m 0,0 km/h (0 Bft) SW 225 3,8 C 0,0 C 0,0 km/h (0 Bft)
11.04.2014 21:20 7,4 C 78 % 1017,8 hPa 0,0 l/m 0,0 km/h (0 Bft) SW 225 3,8 C 0,0 C 0,0 km/h (0 Bft)
11.04.2014 21:25 7,1 C 78 % 1017,8 hPa 0,0 l/m 0,0 km/h (0 Bft) SW 225 3,5 C 0,0 C 0,0 km/h (0 Bft)
11.04.2014 21:30 7,0 C 79 % 1018,0 hPa 0,0 l/m 0,0 km/h (0 Bft) SW 225 3,6 C 0,0 C 0,0 km/h (0 Bft)
11.04.2014 21:35 6,7 C 79 % 1018,0 hPa 0,0 l/m 0,0 km/h (0 Bft) SW 225 3,3 C 0,0 C 0,0 km/h (0 Bft)
11.04.2014 21:40 6,8 C 80 % 1018,0 hPa 0,0 l/m 0,0 km/h (0 Bft) SW 225 3,6 C 0,0 C 0,0 km/h (0 Bft)
11.04.2014 21:45 6,6 C 80 % 1018,0 hPa 0,0 l/m 0,0 km/h (0 Bft) SW 225 3,4 C 0,0 C 0,0 km/h (0 Bft)
11.04.2014 21:50 6,5 C 80 % 1017,8 hPa 0,0 l/m 0,0 km/h (0 Bft) SW 225 3,3 C 0,0 C 0,0 km/h (0 Bft)
11.04.2014 21:55 6,6 C 80 % 1017,8 hPa 0,0 l/m 0,0 km/h (0 Bft) SW 225 3,4 C 0,0 C 0,0 km/h (0 Bft)
11.04.2014 22:00 6,6 C 80 % 1017,8 hPa 0,0 l/m 0,0 km/h (0 Bft) SW 225 3,4 C 0,0 C 0,0 km/h (0 Bft)
11.04.2014 22:05 6,7 C 81 % 1017,8 hPa 0,0 l/m 0,0 km/h (0 Bft) SW 225 3,7 C 0,0 C 0,0 km/h (0 Bft)
11.04.2014 22:10 6,5 C 81 % 1018,1 hPa 0,0 l/m 0,0 km/h (0 Bft) SW 225 3,5 C 0,0 C 0,0 km/h (0 Bft)
11.04.2014 22:15 6,5 C 82 % 1018,1 hPa 0,0 l/m 0,0 km/h (0 Bft) SW 225 3,7 C 0,0 C 0,0 km/h (0 Bft)
11.04.2014 22:20 6,5 C 82 % 1018,1 hPa 0,0 l/m 0,0 km/h (0 Bft) SW 225 3,7 C 0,0 C 0,0 km/h (0 Bft)
11.04.2014 22:24 6,4 C 82 % 1018,1 hPa 0,0 l/m 0,0 km/h (0 Bft) SW 225 3,6 C 0,0 C 0,0 km/h (0 Bft)
11.04.2014 22:25 6,3 C 82 % 1017,9 hPa 0,0 l/m 0,0 km/h (0 Bft) SW 225 3,5 C 0,0 C 0,0 km/h (0 Bft)
11.04.2014 22:30 6,2 C 82 % 1017,9 hPa 0,0 l/m 0,0 km/h (0 Bft) SW 225 3,4 C 0,0 C 0,0 km/h (0 Bft)
11.04.2014 22:35 6,2 C 82 % 1017,9 hPa 0,0 l/m 0,0 km/h (0 Bft) SW 225 3,4 C 0,0 C 0,0 km/h (0 Bft)
11.04.2014 22:40 5,9 C 83 % 1017,9 hPa 0,0 l/m 0,0 km/h (0 Bft) SW 225 3,2 C 0,0 C 0,0 km/h (0 Bft)
11.04.2014 22:45 5,6 C 83 % 1018,0 hPa 0,0 l/m 0,0 km/h (0 Bft) SW 225 2,9 C 0,0 C 0,0 km/h (0 Bft)
11.04.2014 22:50 5,2 C 82 % 1018,0 hPa 0,0 l/m 0,0 km/h (0 Bft) SW 225 2,4 C 0,0 C 0,0 km/h (0 Bft)
11.04.2014 22:55 5,2 C 83 % 1018,0 hPa 0,0 l/m 0,0 km/h (0 Bft) SW 225 2,6 C 0,0 C 0,0 km/h (0 Bft)
11.04.2014 23:00 5,4 C 83 % 1018,0 hPa 0,0 l/m 0,0 km/h (0 Bft) SW 225 2,7 C 0,0 C 0,0 km/h (0 Bft)
11.04.2014 23:05 5,1 C 83 % 1018,1 hPa 0,0 l/m 0,0 km/h (0 Bft) SW 225 2,5 C 0,0 C 0,0 km/h (0 Bft)
11.04.2014 23:10 4,8 C 83 % 1018,1 hPa 0,0 l/m 0,0 km/h (0 Bft) SW 225 2,2 C 0,0 C 0,0 km/h (0 Bft)
11.04.2014 23:15 5,1 C 84 % 1018,1 hPa 0,0 l/m 0,0 km/h (0 Bft) SW 225 2,6 C 0,0 C 0,0 km/h (0 Bft)
11.04.2014 23:20 5,6 C 85 % 1018,1 hPa 0,0 l/m 0,0 km/h (0 Bft) SW 225 3,3 C 0,0 C 0,0 km/h (0 Bft)
11.04.2014 23:25 5,7 C 85 % 1018,2 hPa 0,0 l/m 0,0 km/h (0 Bft) SW 225 3,4 C 0,0 C 0,0 km/h (0 Bft)
11.04.2014 23:30 5,8 C 85 % 1018,2 hPa 0,0 l/m 0,0 km/h (0 Bft) SW 225 3,5 C 0,0 C 0,0 km/h (0 Bft)
11.04.2014 23:35 5,9 C 85 % 1018,2 hPa 0,0 l/m 0,0 km/h (0 Bft) SW 225 3,6 C 0,0 C 0,0 km/h (0 Bft)
11.04.2014 23:40 5,9 C 85 % 1018,2 hPa 0,0 l/m 0,0 km/h (0 Bft) SW 225 3,6 C 0,0 C 0,0 km/h (0 Bft)
11.04.2014 23:45 5,9 C 85 % 1018,2 hPa 0,0 l/m 0,0 km/h (0 Bft) SW 225 3,6 C 0,0 C 0,0 km/h (0 Bft)
11.04.2014 23:50 6,0 C 84 % 1018,2 hPa 0,0 l/m 0,0 km/h (0 Bft) SW 225 3,5 C 0,0 C 0,0 km/h (0 Bft)
11.04.2014 23:55 6,1 C 84 % 1018,2 hPa 0,0 l/m 0,0 km/h (0 Bft) SW 225 3,6 C 0,0 C 0,0 km/h (0 Bft)
_ Min-Zeit 07:00 16:40 18:00 - 23:55 - - 07:00 23:55 23:55
Minimum _ 0,6 C 38 % 1016,8 hPa - 0,0 km/h (0 Bft) - - 0,2 C 0,0 C 0,0 km/h (0 Bft)
_ Max-Zeit 15:05 07:45 00:00 23:55 23:55 - - 09:10 23:55 23:55
Maximum _ 19,3 C 97 % 1020,5 hPa 0,0 l/m 0,0 km/h
SW (0 Bft)
- - 10,8 C 0,0 C 0,0 km/h
SW (0 Bft)
Durchschnitt _ 10,0 C 71 % 1018,6 hPa #0,0 l/m 0,0 km/h (0 Bft) - - - 4,0 C 0,0 C 0,0 km/h (0 Bft)